Regional Weather Roundup
Issued by NWS

Home | Current Version | Previous Version | Graphics & Text | Print | Product List | Glossary On
Versions: 1 2 3 4 5 6 7 8 9 10 11 12 13 14 15 16 17 18 19 20 21 22 23 24 25 26 27 28 29 30 31 32 33 34 35 36 37 38 39 40 41 42 43 44 45 46 47 48 49 50
000
ASUS43 KFSD 211502
RWRSD

WEATHER ROUNDUP FOR SOUTH DAKOTA
NATIONAL WEATHER SERVICE SIOUX FALLS SD
900 AM CST TUE NOV 21 2017

NOTE: "FAIR" INDICATES FEW OR NO CLOUDS BELOW 12,000 FEET WITH NO
SIGNIFICANT WEATHER AND/OR OBSTRUCTIONS TO VISIBILITY.


SDZ001>005-009-010-012>017-211600-
NORTHWEST AND NORTH CENTRAL SOUTH DAKOTA

CITY           SKY/WX    TMP DP  RH WIND       PRES   REMARKS
BUFFALO          N/A     10   0  63 NW20      30.23R WCI  -9
FAITH            N/A     11   1  64 NW17G25   30.31R WCI  -6
MOBRIDGE       CLOUDY    13   4  67 NW17G30   30.30R WCI  -4
$$

SDZ012>016-024>037-041>051-057-063-072>074-211600-
SOUTHWEST AND SOUTH CENTRAL SOUTH DAKOTA

CITY           SKY/WX    TMP DP  RH WIND       PRES   REMARKS
RAPID CTY ARPT CLOUDY    22  18  85 N6        30.28R WCI  14
PIERRE         CLOUDY    14   5  67 NW18      30.32R WCI  -3
CUSTER         CLOUDY    28  19  69 N3        30.18R
ELLSWORTH AFB  CLOUDY    23  20  89 N12       30.27R WCI  11
PHILIP         CLOUDY    17   6  62 N15       30.34R WCI   2
PINE RIDGE     CLOUDY    30  22  72 N10       30.28R WCI  21
SPEARFISH      MOCLDY    27  18  69 W13G20    30.27R WCI  16
WINNER         FAIR      17   8  67 NW18G25   30.29R WCI   1
$$

SDZ004>011-016>023-039-040-211600-
NORTHEAST SOUTH DAKOTA

CITY           SKY/WX    TMP DP  RH WIND       PRES   REMARKS
ABERDEEN       SUNNY     14   6  70 NW20G29   30.28R WCI  -3
WATERTOWN      CLOUDY    15   8  73 NW28G37   30.15R WCI  -5
BROOKINGS      FLURRIES  17   9  70 NW22G33   30.15R WCI   0
SISSETON         N/A     18   9  68 NW25G33   30.18R WCI   0
$$

SDZ017-020-022-023-036>040-048>070-211600-
SOUTHEAST SOUTH DAKOTA

CITY           SKY/WX    TMP DP  RH WIND       PRES   REMARKS
SIOUX FALLS    MOSUNNY   20   9  62 NW25G33   30.17R WCI   2
HURON          SUNNY     16   6  65 NW23G33   30.27R WCI  -2
CHAMBERLAIN    CLOUDY    18   9  67 NW22G31   30.29R WCI   1
MITCHELL       SUNNY     18   7  62 NW25G38   30.28R WCI   0
YANKTON        SUNNY     18   8  65 NW22G29   30.24R WCI   1
$$

ABBREVIATIONS USED IN REMARKS
   TC - TEMPERATURE IN CELSIUS
  WCI - WIND CHILL INDEX
   HX - HEAT INDEX
  VSB - VISIBILITY




USA.gov is the U.S. government's official web portal to all federal, state and local government web resources and services.